| time (UTC) | temp F | wind direction | speed MPH | gust MPH | rain 1hr in | rain 24hr in | rain mn in | humidity % | barometer mb |
| 20260503041024 | 50 | 96 | 0.0 | 8.0 | 0.00 | 0.00 | 0.00 | 57 | 1016.3 |
| 20260503040524 | 50 | 95 | 2.0 | 10.0 | 0.00 | 0.00 | 0.00 | 56 | 1016.1 |
| 20260503040024 | 50 | 95 | 4.0 | 9.0 | 0.00 | 0.00 | 0.00 | 56 | 1016.1 |
| 20260503035523 | 50 | 95 | 2.0 | 13.0 | 0.00 | 0.00 | 0.00 | 56 | 1016.1 |
| 20260503035022 | 50 | 95 | 2.0 | 11.0 | 0.00 | 0.00 | 0.00 | 58 | 1016.0 |
| 20260503034522 | 50 | 95 | 1.0 | 7.0 | 0.00 | 0.00 | 0.00 | 58 | 1016.0 |
| 20260503034025 | 50 | 95 | 0.0 | 7.0 | 0.00 | 0.00 | 0.00 | 58 | 1015.8 |
| 20260503033521 | 50 | 95 | 0.0 | 7.0 | 0.00 | 0.00 | 0.00 | 59 | 1015.8 |
| 20260503033027 | 49 | 95 | 0.0 | 1.0 | 0.00 | 0.00 | 0.00 | 62 | 1015.9 |
| 20260503032520 | 49 | 95 | 0.0 | 2.0 | 0.00 | 0.00 | 0.00 | 61 | 1015.8 |
| 20260503032020 | 49 | 96 | 0.0 | 2.0 | 0.00 | 0.00 | 0.00 | 61 | 1015.7 |
| 20260503031520 | 49 | 95 | 0.0 | 2.0 | 0.00 | 0.00 | 0.00 | 61 | 1015.8 |
| 20260503031050 | 49 | 95 | 0.0 | 2.0 | 0.00 | 0.00 | 0.00 | 61 | 1015.7 |
| 20260503030522 | 49 | 95 | 0.0 | 2.0 | 0.00 | 0.00 | 0.00 | 62 | 1015.7 |
| 20260503030018 | 50 | 96 | 0.0 | 3.0 | 0.00 | 0.00 | 0.00 | 62 | 1015.7 |
| 20260503025516 | 50 | 96 | 1.0 | 3.0 | 0.00 | 0.00 | 0.00 | 61 | 1015.7 |
| 20260503025016 | 50 | 96 | 0.0 | 2.0 | 0.00 | 0.00 | 0.00 | 59 | 1015.7 |
| 20260503024518 | 50 | 96 | 0.0 | 2.0 | 0.00 | 0.00 | 0.00 | 59 | 1015.7 |
| 20260503024018 | 50 | 96 | 0.0 | 0.0 | 0.00 | 0.00 | 0.00 | 58 | 1015.6 |
| 20260503023517 | 51 | 95 | 0.0 | 0.0 | 0.00 | 0.00 | 0.00 | 58 | 1015.5 |
| 20260503023016 | 51 | 96 | 0.0 | 2.0 | 0.00 | 0.00 | 0.00 | 57 | 1015.5 |
| 20260503022515 | 51 | 95 | 0.0 | 2.0 | 0.00 | 0.00 | 0.00 | 56 | 1015.4 |
| 20260503022014 | 52 | 96 | 0.0 | 4.0 | 0.00 | 0.00 | 0.00 | 56 | 1015.4 |
| 20260503021516 | 52 | 95 | 1.0 | 4.0 | 0.00 | 0.00 | 0.00 | 55 | 1015.3 |
| 20260503021013 | 52 | 95 | 0.0 | 1.0 | 0.00 | 0.00 | 0.00 | 55 | 1015.3 |
| 20260503020513 | 52 | 95 | 0.0 | 1.0 | 0.00 | 0.00 | 0.00 | 55 | 1015.3 |
| 20260503020012 | 52 | 95 | 0.0 | 2.0 | 0.00 | 0.00 | 0.00 | 54 | 1015.3 |
| 20260503015510 | 53 | 95 | 0.0 | 3.0 | 0.00 | 0.00 | 0.00 | 54 | 1015.3 |
| 20260503015010 | 53 | 96 | 1.0 | 4.0 | 0.00 | 0.00 | 0.00 | 51 | 1015.1 |
| 20260503014507 | 53 | 96 | 1.0 | 4.0 | 0.00 | 0.00 | 0.00 | 51 | 1015.2 |
| 20260503014006 | 53 | 96 | 0.0 | 2.0 | 0.00 | 0.00 | 0.00 | 51 | 1015.1 |
| 20260503013506 | 53 | 96 | 0.0 | 4.0 | 0.00 | 0.00 | 0.00 | 51 | 1015.0 |
| 20260503013006 | 54 | 95 | 2.0 | 4.0 | 0.00 | 0.00 | 0.00 | 50 | 1014.9 |
| 20260503012505 | 54 | 96 | 0.0 | 3.0 | 0.00 | 0.00 | 0.00 | 49 | 1014.8 |
| 20260503012005 | 54 | 96 | 0.0 | 6.0 | 0.00 | 0.00 | 0.00 | 49 | 1014.8 |
| 20260503011504 | 54 | 95 | 2.0 | 6.0 | 0.00 | 0.00 | 0.00 | 49 | 1014.8 |
| 20260503011004 | 54 | 95 | 2.0 | 4.0 | 0.00 | 0.00 | 0.00 | 49 | 1014.7 |
| 20260503010503 | 54 | 95 | 0.0 | 3.0 | 0.00 | 0.00 | 0.00 | 49 | 1014.5 |
| 20260503010004 | 54 | 96 | 1.0 | 6.0 | 0.00 | 0.00 | 0.00 | 48 | 1014.4 |
| 20260503005502 | 55 | 95 | 0.0 | 6.0 | 0.00 | 0.00 | 0.00 | 48 | 1014.3 |
| 20260503005005 | 55 | 95 | 1.0 | 6.0 | 0.00 | 0.00 | 0.00 | 48 | 1014.2 |
| 20260503004504 | 55 | 95 | 1.0 | 6.0 | 0.00 | 0.00 | 0.00 | 48 | 1014.2 |
| 20260503004003 | 55 | 95 | 1.0 | 6.0 | 0.00 | 0.00 | 0.00 | 47 | 1014.1 |
| 20260503003504 | 55 | 96 | 2.0 | 6.0 | 0.00 | 0.00 | 0.00 | 47 | 1014.0 |
| 20260503003005 | 55 | 95 | 1.0 | 6.0 | 0.00 | 0.00 | 0.00 | 47 | 1014.0 |
| 20260503002503 | 56 | 95 | 0.0 | 3.0 | 0.00 | 0.00 | 0.00 | 46 | 1014.0 |
| 20260503002003 | 56 | 96 | 1.0 | 7.0 | 0.00 | 0.00 | 0.00 | 46 | 1013.9 |
| 20260503001502 | 56 | 95 | 0.0 | 7.0 | 0.00 | 0.00 | 0.00 | 46 | 1013.7 |
| 20260503001003 | 57 | 95 | 0.0 | 7.0 | 0.00 | 0.00 | 0.00 | 45 | 1013.6 |
| 20260503000504 | 57 | 96 | 2.0 | 9.0 | 0.00 | 0.00 | 0.00 | 45 | 1013.5 |
| 20260503000002 | 57 | 95 | 4.0 | 11.0 | 0.00 | 0.00 | 0.00 | 44 | 1013.4 |
| 20260502235502 | 57 | 96 | 4.0 | 17.0 | 0.00 | 0.00 | 0.00 | 44 | 1013.4 |
| 20260502235002 | 58 | 96 | 10.0 | 18.0 | 0.00 | 0.00 | 0.00 | 43 | 1013.2 |
| 20260502234058 | 58 | 96 | 8.0 | 25.0 | 0.00 | 0.00 | 0.00 | 43 | 1013.1 |
| 20260502233559 | 59 | 96 | 8.0 | 25.0 | 0.00 | 0.00 | 0.00 | 42 | 1013.0 |
| 20260502233100 | 59 | 96 | 5.0 | 16.0 | 0.00 | 0.00 | 0.00 | 41 | 1013.0 |
| 20260502232559 | 59 | 96 | 6.0 | 18.0 | 0.00 | 0.00 | 0.00 | 40 | 1012.7 |
| 20260502232057 | 59 | 96 | 6.0 | 18.0 | 0.00 | 0.00 | 0.00 | 40 | 1012.8 |
| 20260502231602 | 60 | 96 | 11.0 | 18.0 | 0.00 | 0.00 | 0.00 | 40 | 1012.8 |
| 20260502231058 | 60 | 96 | 8.0 | 18.0 | 0.00 | 0.00 | 0.00 | 40 | 1012.6 |
| 20260502230557 | 59 | 95 | 6.0 | 18.0 | 0.00 | 0.00 | 0.00 | 41 | 1012.5 |
| 20260502230057 | 60 | 95 | 5.0 | 16.0 | 0.00 | 0.00 | 0.00 | 41 | 1012.5 |
| 20260502225556 | 60 | 95 | 10.0 | 16.0 | 0.00 | 0.00 | 0.00 | 40 | 1012.4 |
| 20260502225058 | 60 | 96 | 9.0 | 20.0 | 0.00 | 0.00 | 0.00 | 39 | 1012.6 |
| 20260502224057 | 60 | 95 | 9.0 | 22.0 | 0.00 | 0.00 | 0.00 | 37 | 1012.5 |
| 20260502223557 | 60 | 95 | 10.0 | 22.0 | 0.00 | 0.00 | 0.00 | 38 | 1012.3 |
| 20260502223057 | 60 | 95 | 11.0 | 25.0 | 0.00 | 0.00 | 0.00 | 38 | 1012.3 |
| 20260502222600 | 61 | 96 | 11.0 | 22.0 | 0.00 | 0.00 | 0.00 | 38 | 1012.2 |
| 20260502222058 | 61 | 95 | 11.0 | 26.0 | 0.00 | 0.00 | 0.00 | 39 | 1012.0 |
| 20260502221556 | 61 | 96 | 14.0 | 27.0 | 0.00 | 0.00 | 0.00 | 39 | 1011.9 |
| 20260502221100 | 61 | 96 | 11.0 | 27.0 | 0.00 | 0.00 | 0.00 | 38 | 1011.8 |
| 20260502220558 | 61 | 95 | 7.0 | 18.0 | 0.00 | 0.00 | 0.00 | 38 | 1011.7 |
| 20260502220057 | 62 | 95 | 9.0 | 22.0 | 0.00 | 0.00 | 0.00 | 38 | 1011.7 |
| 20260502215556 | 62 | 96 | 3.0 | 22.0 | 0.00 | 0.00 | 0.00 | 38 | 1011.7 |
| 20260502215057 | 62 | 95 | 12.0 | 22.0 | 0.00 | 0.00 | 0.00 | 37 | 1011.5 |
| 20260502214055 | 63 | 96 | 7.0 | 20.0 | 0.00 | 0.00 | 0.00 | 37 | 1011.3 |
| 20260502213555 | 63 | 96 | 9.0 | 21.0 | 0.00 | 0.00 | 0.00 | 37 | 1011.3 |
| 20260502213056 | 63 | 96 | 10.0 | 21.0 | 0.00 | 0.00 | 0.00 | 37 | 1011.1 |
| 20260502212556 | 62 | 96 | 4.0 | 35.0 | 0.00 | 0.00 | 0.00 | 37 | 1011.1 |
| 20260502212056 | 62 | 96 | 9.0 | 35.0 | 0.00 | 0.00 | 0.00 | 37 | 1011.1 |
| 20260502211554 | 62 | 96 | 6.0 | 17.0 | 0.00 | 0.00 | 0.00 | 37 | 1011.1 |
| 20260502211057 | 62 | 96 | 7.0 | 20.0 | 0.00 | 0.00 | 0.00 | 37 | 1011.1 |
| 20260502210554 | 62 | 96 | 8.0 | 20.0 | 0.00 | 0.00 | 0.00 | 36 | 1011.0 |
| 20260502210111 | 63 | 96 | 11.0 | 20.0 | 0.00 | 0.00 | 0.00 | 35 | 1011.1 |
| 20260502205553 | 63 | 96 | 8.0 | 20.0 | 0.00 | 0.00 | 0.00 | 36 | 1011.0 |
| 20260502205054 | 63 | 96 | 8.0 | 21.0 | 0.00 | 0.00 | 0.00 | 36 | 1011.1 |
| 20260502204053 | 63 | 96 | 4.0 | 17.0 | 0.00 | 0.00 | 0.00 | 35 | 1011.0 |
| 20260502203555 | 62 | 96 | 6.0 | 21.0 | 0.00 | 0.00 | 0.00 | 36 | 1011.0 |
| 20260502203055 | 62 | 96 | 6.0 | 21.0 | 0.00 | 0.00 | 0.00 | 36 | 1011.2 |
| 20260502202552 | 62 | 96 | 12.0 | 20.0 | 0.00 | 0.00 | 0.00 | 35 | 1011.3 |
| 20260502202052 | 62 | 96 | 10.0 | 23.0 | 0.00 | 0.00 | 0.00 | 35 | 1011.1 |
| 20260502201607 | 62 | 96 | 9.0 | 23.0 | 0.00 | 0.00 | 0.00 | 36 | 1011.2 |
| 20260502201052 | 63 | 96 | 6.0 | 19.0 | 0.00 | 0.00 | 0.00 | 35 | 1011.1 |
| 20260502200551 | 63 | 96 | 8.0 | 17.0 | 0.00 | 0.00 | 0.00 | 35 | 1011.1 |
| 20260502200050 | 63 | 96 | 5.0 | 18.0 | 0.00 | 0.00 | 0.00 | 35 | 1011.2 |
| 20260502195649 | 63 | 96 | 10.0 | 18.0 | 0.00 | 0.00 | 0.00 | 36 | 1011.1 |
| 20260502195048 | 63 | 96 | 9.0 | 18.0 | 0.00 | 0.00 | 0.00 | 35 | 1011.2 |
| 20260502194054 | 62 | 96 | 4.0 | 18.0 | 0.00 | 0.00 | 0.00 | 36 | 1011.4 |
| 20260502193553 | 63 | 96 | 7.0 | 18.0 | 0.00 | 0.00 | 0.00 | 35 | 1011.6 |
| 20260502193052 | 62 | 96 | 10.0 | 18.0 | 0.00 | 0.00 | 0.00 | 37 | 1011.6 |
| 20260502192554 | 63 | 96 | 8.0 | 16.0 | 0.00 | 0.00 | 0.00 | 36 | 1011.5 |
| 20260502192052 | 63 | 96 | 2.0 | 15.0 | 0.00 | 0.00 | 0.00 | 36 | 1011.6 |
| 20260502191651 | 63 | 96 | 4.0 | 15.0 | 0.00 | 0.00 | 0.00 | 36 | 1011.6 |
| 20260502191051 | 62 | 96 | 7.0 | 18.0 | 0.00 | 0.00 | 0.00 | 36 | 1011.7 |
| 20260502190551 | 62 | 96 | 6.0 | 21.0 | 0.00 | 0.00 | 0.00 | 37 | 1011.7 |
| 20260502190055 | 62 | 96 | 6.0 | 22.0 | 0.00 | 0.00 | 0.00 | 36 | 1011.7 |
| 20260502185551 | 63 | 96 | 7.0 | 17.0 | 0.00 | 0.00 | 0.00 | 36 | 1011.8 |
| 20260502185050 | 62 | 96 | 6.0 | 14.0 | 0.00 | 0.00 | 0.00 | 38 | 1011.8 |
| 20260502184046 | 62 | 96 | 7.0 | 17.0 | 0.00 | 0.00 | 0.00 | 36 | 1011.9 |
| 20260502183546 | 63 | 96 | 6.0 | 19.0 | 0.00 | 0.00 | 0.00 | 36 | 1011.9 |
| 20260502183046 | 63 | 96 | 9.0 | 19.0 | 0.00 | 0.00 | 0.00 | 36 | 1011.8 |
| 20260502182547 | 63 | 96 | 4.0 | 13.0 | 0.00 | 0.00 | 0.00 | 36 | 1011.9 |
| 20260502182045 | 63 | 96 | 6.0 | 13.0 | 0.00 | 0.00 | 0.00 | 35 | 1011.8 |
| 20260502181544 | 63 | 95 | 6.0 | 12.0 | 0.00 | 0.00 | 0.00 | 36 | 1011.9 |
| 20260502181043 | 63 | 96 | 2.0 | 19.0 | 0.00 | 0.00 | 0.00 | 39 | 1011.9 |
| 20260502180542 | 63 | 95 | 2.0 | 19.0 | 0.00 | 0.00 | 0.00 | 40 | 1012.0 |
| 20260502164036 | 58 | 96 | 1.0 | 6.0 | 0.00 | 0.00 | 0.00 | 54 | 1013.3 |
| 20260502163531 | 58 | 95 | 0.0 | 4.0 | 0.00 | 0.00 | 0.00 | 54 | 1013.4 |
| 20260502163037 | 57 | 95 | 1.0 | 6.0 | 0.00 | 0.00 | 0.00 | 55 | 1013.4 |
| 20260502162529 | 57 | 96 | 2.0 | 9.0 | 0.00 | 0.00 | 0.00 | 54 | 1013.5 |
| 20260502162033 | 57 | 96 | 3.0 | 9.0 | 0.00 | 0.00 | 0.00 | 55 | 1013.6 |
| 20260502161535 | 56 | 96 | 1.0 | 9.0 | 0.00 | 0.00 | 0.00 | 55 | 1013.6 |
| 20260502161029 | 56 | 96 | 1.0 | 6.0 | 0.00 | 0.00 | 0.00 | 56 | 1013.8 |
| 20260502160531 | 56 | 96 | 0.0 | 4.0 | 0.00 | 0.00 | 0.00 | 57 | 1014.0 |
| 20260502152025 | 56 | 96 | 1.0 | 9.0 | 0.00 | 0.00 | 0.00 | 57 | 1013.9 |
| 20260502151526 | 55 | 96 | 1.0 | 9.0 | 0.00 | 0.00 | 0.00 | 57 | 1014.0 |
| 20260502151028 | 56 | 96 | 3.0 | 9.0 | 0.00 | 0.00 | 0.00 | 58 | 1013.9 |
| 20260502150525 | 55 | 95 | 2.0 | 8.0 | 0.00 | 0.00 | 0.00 | 57 | 1013.9 |
| 20260502130517 | 53 | 96 | 1.0 | 6.0 | 0.00 | 0.00 | 0.00 | 67 | 1013.6 |
| 20260502123520 | 53 | 96 | 1.0 | 8.0 | 0.00 | 0.00 | 0.00 | 68 | 1013.4 |
| 20260502123018 | 53 | 96 | 1.0 | 7.0 | 0.00 | 0.00 | 0.00 | 68 | 1013.7 |
| 20260502122517 | 53 | 96 | 3.0 | 8.0 | 0.00 | 0.00 | 0.00 | 68 | 1013.6 |
| 20260502122017 | 53 | 96 | 5.0 | 8.0 | 0.00 | 0.00 | 0.00 | 68 | 1013.4 |
| 20260502121517 | 53 | 96 | 2.0 | 8.0 | 0.00 | 0.00 | 0.00 | 69 | 1013.4 |
| 20260502121017 | 53 | 96 | 1.0 | 8.0 | 0.00 | 0.00 | 0.00 | 69 | 1013.2 |
| 20260502120516 | 53 | 96 | 1.0 | 8.0 | 0.00 | 0.00 | 0.00 | 69 | 1013.2 |
| 20260502115514 | 53 | 95 | 2.0 | 8.0 | 0.00 | 0.00 | 0.00 | 69 | 1013.3 |
| 20260502115013 | 53 | 95 | 3.0 | 8.0 | 0.00 | 0.00 | 0.00 | 69 | 1013.2 |
| 20260502114012 | 53 | 96 | 3.0 | 9.0 | 0.00 | 0.00 | 0.00 | 69 | 1012.9 |
| 20260502113512 | 53 | 96 | 1.0 | 10.0 | 0.00 | 0.00 | 0.00 | 69 | 1012.7 |
| 20260502113010 | 53 | 96 | 4.0 | 12.0 | 0.00 | 0.00 | 0.00 | 68 | 1012.6 |
| 20260502112509 | 53 | 96 | 3.0 | 12.0 | 0.00 | 0.00 | 0.00 | 68 | 1012.8 |
| 20260502112014 | 53 | 96 | 3.0 | 8.0 | 0.00 | 0.00 | 0.00 | 68 | 1012.9 |
| 20260502111508 | 53 | 96 | 3.0 | 8.0 | 0.00 | 0.00 | 0.00 | 68 | 1012.9 |
| 20260502111007 | 53 | 96 | 4.0 | 9.0 | 0.00 | 0.00 | 0.00 | 68 | 1013.0 |
| 20260502110507 | 53 | 96 | 3.0 | 13.0 | 0.00 | 0.00 | 0.00 | 68 | 1012.9 |
| 20260502110007 | 53 | 95 | 4.0 | 13.0 | 0.00 | 0.00 | 0.00 | 68 | 1012.8 |
| 20260502105509 | 53 | 96 | 5.0 | 12.0 | 0.00 | 0.00 | 0.00 | 68 | 1012.8 |
| 20260502105008 | 54 | 96 | 2.0 | 7.0 | 0.00 | 0.00 | 0.00 | 68 | 1012.7 |
| 20260502104005 | 54 | 96 | 1.0 | 8.0 | 0.00 | 0.00 | 0.00 | 68 | 1012.6 |
| 20260502103505 | 54 | 96 | 3.0 | 9.0 | 0.00 | 0.00 | 0.00 | 68 | 1012.7 |
| 20260502103010 | 54 | 96 | 3.0 | 9.0 | 0.00 | 0.00 | 0.00 | 68 | 1012.7 |
| 20260502102504 | 54 | 96 | 3.0 | 15.0 | 0.00 | 0.00 | 0.00 | 68 | 1012.7 |
| 20260502102004 | 54 | 96 | 2.0 | 15.0 | 0.00 | 0.00 | 0.00 | 68 | 1012.4 |
| 20260502101502 | 54 | 96 | 2.0 | 19.0 | 0.00 | 0.00 | 0.00 | 67 | 1012.2 |
| 20260502101002 | 54 | 96 | 7.0 | 19.0 | 0.00 | 0.00 | 0.00 | 67 | 1012.3 |
| 20260502100502 | 54 | 96 | 2.0 | 7.0 | 0.00 | 0.00 | 0.00 | 67 | 1012.3 |
| 20260502091059 | 55 | 96 | 1.0 | 8.0 | 0.00 | 0.00 | 0.00 | 67 | 1012.6 |
| 20260502090557 | 55 | 96 | 4.0 | 8.0 | 0.00 | 0.00 | 0.00 | 67 | 1012.7 |
| 20260502080104 | 56 | 96 | 2.0 | 9.0 | 0.00 | 0.00 | 0.00 | 68 | 1012.3 |
| 20260502071054 | 56 | 96 | 1.0 | 3.0 | 0.00 | 0.00 | 0.00 | 70 | 1012.0 |
| 20260502070557 | 56 | 96 | 0.0 | 2.0 | 0.00 | 0.00 | 0.00 | 71 | 1012.1 |
| 20260502070055 | 56 | 96 | 0.0 | 2.0 | 0.00 | 0.00 | 0.00 | 72 | 1012.1 |
| 20260502065554 | 56 | 96 | 0.0 | 4.0 | 0.00 | 0.00 | 0.00 | 72 | 1012.2 |
| 20260502065056 | 56 | 96 | 1.0 | 4.0 | 0.00 | 0.00 | 0.00 | 71 | 1012.1 |
| 20260502064052 | 57 | 96 | 0.0 | 8.0 | 0.00 | 0.00 | 0.00 | 69 | 1012.0 |
| 20260502063551 | 57 | 95 | 1.0 | 10.0 | 0.00 | 0.00 | 0.00 | 69 | 1011.9 |
| 20260502063051 | 57 | 96 | 0.0 | 12.0 | 0.00 | 0.00 | 0.00 | 69 | 1012.1 |
| 20260502062552 | 57 | 96 | 5.0 | 12.0 | 0.00 | 0.00 | 0.00 | 69 | 1012.2 |
| 20260502062047 | 56 | 96 | 1.0 | 6.0 | 0.00 | 0.00 | 0.00 | 71 | 1012.2 |
| 20260502061546 | 56 | 96 | 2.0 | 4.0 | 0.00 | 0.00 | 0.00 | 73 | 1012.3 |
| 20260502061048 | 56 | 96 | 0.0 | 4.0 | 0.00 | 0.00 | 0.00 | 75 | 1012.3 |
| 20260502060544 | 55 | 96 | 0.0 | 2.0 | 0.00 | 0.00 | 0.00 | 78 | 1012.3 |
| 20260502060051 | 55 | 96 | 0.0 | 1.0 | 0.00 | 0.00 | 0.00 | 80 | 1012.4 |
| 20260502055543 | 55 | 96 | 0.0 | 2.0 | 0.00 | 0.00 | 0.00 | 82 | 1012.4 |
| 20260502055043 | 55 | 96 | 0.0 | 2.0 | 0.00 | 0.00 | 0.00 | 82 | 1012.4 |
| 20260502054041 | 55 | 96 | 0.0 | 0.0 | 0.00 | 0.00 | 0.00 | 83 | 1012.6 |
| 20260502053540 | 55 | 96 | 0.0 | 3.0 | 0.00 | 0.00 | 0.00 | 83 | 1012.7 |
| 20260502053049 | 55 | 96 | 0.0 | 7.0 | 0.00 | 0.00 | 0.00 | 83 | 1012.7 |
| 20260502052540 | 55 | 96 | 3.0 | 7.0 | 0.00 | 0.00 | 0.00 | 82 | 1012.7 |
| 20260502052039 | 55 | 96 | 1.0 | 4.0 | 0.00 | 0.00 | 0.00 | 82 | 1012.7 |
| 20260502051541 | 55 | 96 | 2.0 | 4.0 | 0.00 | 0.00 | 0.00 | 82 | 1012.6 |
| 20260502051038 | 55 | 96 | 2.0 | 4.0 | 0.00 | 0.00 | 0.00 | 82 | 1012.6 |
| 20260502050538 | 55 | 95 | 1.0 | 3.0 | 0.00 | 0.00 | 0.00 | 81 | 1012.5 |
| 20260502050038 | 55 | 96 | 0.0 | 4.0 | 0.00 | 0.00 | 0.00 | 82 | 1012.7 |
| 20260502045538 | 56 | 96 | 1.0 | 4.0 | 0.00 | 0.00 | 0.00 | 81 | 1012.5 |
| 20260502045038 | 56 | 96 | 2.0 | 3.0 | 0.00 | 0.00 | 0.00 | 80 | 1012.5 |
| 20260502044037 | 56 | 96 | 1.0 | 3.0 | 0.00 | 0.00 | 0.00 | 80 | 1012.5 |
| 20260502043537 | 56 | 96 | 0.0 | 2.0 | 0.00 | 0.00 | 0.00 | 79 | 1012.4 |
| 20260502043037 | 56 | 96 | 0.0 | 1.0 | 0.00 | 0.00 | 0.00 | 79 | 1012.5 |
| 20260502042537 | 56 | 96 | 0.0 | 1.0 | 0.00 | 0.00 | 0.00 | 79 | 1012.3 |
| 20260502042037 | 56 | 96 | 0.0 | 2.0 | 0.00 | 0.00 | 0.00 | 79 | 1012.4 |
| 20260502041542 | 57 | 95 | 0.0 | 2.0 | 0.00 | 0.00 | 0.00 | 78 | 1012.4 |